Temperature
4 4 4 4 4 3 3 5 6 6 6 6 4 3 2 0 -1 -2 -2 -2 -2 -3 -3 -3 -3 -3 -3 -3 -3 -4 -4 -4 -4 -5 -5 -5 -5 -5 -5 -5 -5 -5 -5 -5
2 2 2 2 3 3 3 4 4 4 4 4 2 1 0 -1 -1 -2 -2 -3 -3 -3 -3 -3 -4 -4 -4 -4 -4 -4 -4 -5 -5 -5 -5 -5 -5 -5 -5 -5 -5 -5 -5 -5
3 1 2 3 3 3 3 3 3 4 4 2 1 0 -0 -1 -2 -2 -3 -3 -4 -4 -4 -4 -4 -4 -4 -4 -4 -5 -5 -5 -5 -6 -6 -6 -6 -6 -6 -6 -6 -6 -6 -6
2 1 2 5 2 2 2 2 2 2 1 1 0 -1 -2 -2 -2 -3 -3 -4 -4 -4 -4 -4 -4 -4 -5 -5 -5 -5 -5 -6 -6 -6 -6 -6 -6 -6 -6 -7 -7 -7 -7 -7
2 2 3 3 1 0 1 1 0 0 0 -1 -3 -3 -2 -3 -3 -3 -4 -4 -4 -4 -4 -4 -4 -5 -5 -5 -5 -6 -6 -6 -6 -6 -7 -7 -7 -7 -7 -7 -7 -7 -7 -7
1 2 3 3 0 -1 0 1 -0 -1 -1 -2 -3 -1 -1 -3 -4 -4 -4 -4 -4 -5 -5 -5 -5 -5 -5 -6 -6 -6 -6 -6 -7 -7 -7 -7 -7 -7 -7 -7 -7 -8 -8 -7
1 1 3 1 -2 -1 1 2 -2 -2 -2 -3 -3 -2 -4 -4 -4 -4 -4 -5 -5 -5 -5 -6 -6 -6 -6 -6 -6 -7 -7 -7 -7 -7 -8 -8 -8 -8 -8 -8 -8 -8 -8 -8
0 0 2 -2 -2 -0 0 -2 -3 -3 -4 -4 -4 -5 -5 -5 -5 -5 -5 -5 -6 -6 -6 -6 -6 -7 -7 -7 -7 -7 -7 -8 -8 -8 -8 -8 -8 -8 -8 -8 -8 -8 -8 -8
1 1 -1 -3 -2 -3 -3 -3 -4 -4 -4 -4 -5 -6 -6 -6 -6 -6 -6 -6 -6 -6 -7 -7 -7 -7 -7 -7 -8 -8 -8 -8 -8 -8 -8 -9 -9 -9 -9 -9 -9 -9 -9 -9
-2 -2 -3 -4 -4 -4 -3 -4 -4 -4 -4 -5 -5 -6 -6 -6 -6 -7 -7 -7 -7 -7 -7 -7 -7 -8 -8 -8 -8 -8 -9 -9 -9 -9 -9 -9 -9 -9 -9 -10 -10 -10 -10 -10
-3 -3 -4 -4 -4 -4 -4 -4 -4 -5 -5 -5 -6 -6 -6 -7 -7 -7 -7 -7 -7 -8 -8 -8 -8 -8 -8 -9 -9 -9 -9 -9 -9 -10 -10 -10 -10 -10 -10 -10 -10 -10 -10 -10
-2 -3 -3 -4 -4 -5 -5 -5 -5 -5 -6 -6 -6 -6 -7 -7 -7 -8 -8 -8 -8 -8 -8 -8 -9 -9 -9 -9 -9 -10 -10 -10 -10 -10 -10 -10 -10 -10 -10 -10 -10 -10 -10 -10
-4 -4 -5 -5 -5 -5 -6 -6 -6 -6 -6 -7 -7 -7 -7 -8 -8 -8 -8 -8 -8 -9 -9 -9 -9 -9 -9 -10 -10 -10 -10 -10 -10 -11 -11 -11 -11 -11 -11 -11 -11 -11 -11 -11
-5 -5 -6 -6 -6 -6 -6 -7 -7 -7 -7 -7 -7 -8 -8 -8 -8 -9 -9 -9 -9 -9 -9 -10 -10 -10 -10 -10 -10 -11 -11 -11 -11 -11 -11 -11 -11 -11 -11 -11 -11 -11 -11 -11
-6 -6 -6 -6 -7 -7 -7 -7 -7 -8 -8 -8 -8 -8 -8 -9 -9 -9 -9 -10 -10 -10 -10 -10 -10 -10 -10 -11 -11 -11 -11 -11 -11 -12 -12 -12 -12 -12 -12 -12 -12 -12 -12 -11
-7 -7 -7 -7 -7 -8 -8 -8 -8 -8 -8 -8 -9 -9 -9 -9 -9 -10 -10 -10 -10 -10 -10 -10 -11 -11 -11 -11 -11 -11 -11 -12 -12 -12 -12 -12 -12 -12 -12 -12 -12 -12 -12 -12
-8 -8 -8 -8 -8 -8 -8 -9 -8 -9 -9 -9 -9 -9 -10 -10 -10 -10 -10 -10 -10 -11 -11 -11 -11 -11 -11 -12 -12 -12 -12 -12 -12 -12 -12 -12 -13 -12 -13 -13 -13 -13 -13 -13
-8 -8 -8 -8 -9 -9 -9 -9 -9 -9 -9 -9 -10 -10 -10 -10 -10 -10 -11 -11 -11 -11 -11 -12 -12 -12 -12 -12 -12 -12 -12 -12 -12 -13 -13 -13 -13 -13 -13 -13 -13 -13 -13 -13
-8 -8 -8 -9 -9 -9 -9 -9 -9 -10 -10 -10 -10 -10 -11 -11 -11 -11 -11 -11 -11 -12 -12 -12 -12 -12 -12 -12 -13 -13 -13 -13 -13 -13 -13 -13 -13 -13 -13 -13 -13 -13 -13 -13
-9 -9 -9 -9 -9 -9 -10 -10 -10 -10 -10 -11 -11 -11 -11 -11 -12 -12 -12 -12 -12 -12 -12 -12 -13 -13 -13 -13 -13 -13 -13 -13 -13 -13 -13 -13 -13 -14 -13 -14 -14 -14 -14 -13
-9 -9 -9 -10 -10 -10 -10 -10 -10 -10 -11 -11 -11 -11 -12 -12 -12 -12 -12 -12 -13 -13 -13 -13 -13 -13 -13 -13 -13 -13 -13 -13 -13 -14 -14 -14 -14 -14 -14 -14 -14 -14 -14 -14
-10 -10 -10 -10 -10 -10 -11 -11 -11 -11 -11 -12 -12 -12 -12 -12 -13 -13 -13 -13 -13 -13 -13 -13 -14 -14 -14 -14 -14 -14 -14 -14 -14 -14 -14 -14 -14 -14 -14 -14 -14 -14 -14 -14
-10 -10 -11 -11 -11 -11 -11 -12 -12 -12 -12 -12 -12 -13 -13 -13 -13 -13 -13 -13 -14 -14 -14 -14 -14 -14 -14 -14 -14 -14 -14 -14 -14 -14 -14 -14 -14 -14 -14 -14 -14 -14 -14 -14
-11 -11 -11 -11 -11 -12 -12 -12 -12 -12 -12 -13 -13 -13 -13 -13 -13 -14 -14 -14 -14 -14 -14 -14 -14 -15 -15 -14 -14 -14 -14 -14 -14 -15 -15 -15 -15 -15 -15 -14 -14 -14 -14 -14
-11 -11 -11 -12 -12 -12 -12 -12 -13 -13 -13 -13 -13 -13 -14 -14 -14 -14 -14 -14 -14 -14 -14 -14 -15 -15 -15 -15 -15 -15 -15 -15 -15 -15 -15 -15 -15 -15 -15 -15 -14 -14 -14 -14
-11 -12 -12 -12 -12 -12 -13 -13 -13 -13 -13 -13 -13 -14 -14 -14 -14 -14 -14 -14 -15 -15 -15 -15 -15 -15 -15 -15 -15 -15 -15 -15 -15 -15 -15 -15 -15 -15 -15 -15 -15 -15 -14 -14
-12 -12 -12 -12 -13 -13 -13 -13 -13 -13 -13 -14 -14 -14 -14 -14 -14 -14 -15 -15 -15 -15 -15 -15 -15 -15 -15 -15 -15 -15 -15 -15 -15 -15 -15 -15 -15 -15 -15 -15 -15 -15 -14 -14
Wind_Speed
6 3 4 8 10 13 15 15 13 14 13 11 7 5 4 3 3 3 3 3 4 4 3 3 3 3 4 4 4 4 5 5 5 6 6 6 7 7 7 7 8 8 9 9
4 3 5 8 11 14 16 16 17 16 14 6 4 3 3 4 4 4 4 4 4 4 4 4 4 4 4 4 4 4 5 5 5 5 6 6 7 7 7 8 8 8 8 9
4 1 4 9 10 12 9 10 11 14 11 3 4 5 5 5 5 5 4 4 4 4 4 4 4 4 4 4 4 4 5 5 5 6 6 6 6 7 7 8 8 8 9 9
2 1 8 4 1 5 9 9 8 7 4 3 4 4 4 4 4 4 4 4 4 4 4 3 3 3 3 3 4 4 5 5 5 5 6 6 7 7 8 7 8 8 9 9
4 6 10 5 2 3 6 6 6 7 5 3 1 2 3 2 3 4 4 4 3 3 3 3 3 3 3 3 3 4 5 5 6 6 6 7 7 8 7 8 8 8 9 9
5 6 8 3 2 1 3 5 3 5 4 3 2 3 2 1 3 3 3 2 2 2 2 2 2 2 2 3 4 4 5 6 6 6 6 7 7 8 7 7 8 8 9 9
9 8 8 0 3 5 5 3 2 3 3 4 3 3 2 2 3 3 3 2 2 2 2 2 2 2 3 3 4 5 5 6 6 6 7 7 7 7 7 7 8 8 9 8
7 8 7 4 6 5 2 2 1 1 2 2 1 1 2 2 2 3 2 2 2 2 2 2 2 2 3 4 4 5 5 6 6 6 6 6 7 7 7 7 8 8 8 8
7 5 1 4 3 1 1 1 0 1 1 2 1 2 2 2 2 2 2 2 2 2 2 3 3 3 4 5 5 5 5 6 6 6 6 6 6 7 6 6 6 6 7 7
4 4 2 2 1 1 1 0 0 1 1 2 2 2 2 2 2 3 3 2 2 2 3 3 4 4 4 5 5 5 6 6 6 6 6 6 5 5 6 6 6 6 7 7
4 2 1 2 3 2 1 1 1 1 0 1 2 2 2 2 2 3 3 3 2 2 3 4 4 4 4 5 5 5 6 6 6 6 6 6 6 6 6 6 7 7 7 7
4 4 3 2 1 2 3 2 1 1 0 1 1 2 2 2 3 3 3 3 3 3 3 4 4 5 5 5 5 5 5 5 5 5 5 6 6 6 7 8 10 11 11 10
1 1 1 1 1 1 1 1 1 1 1 1 1 2 2 3 3 3 3 3 3 4 4 4 4 5 5 5 5 5 5 6 5 5 5 6 6 6 7 7 9 10 10 11
1 2 1 2 1 1 1 1 1 1 0 1 1 1 1 2 2 3 3 3 4 4 4 4 4 5 5 5 5 5 6 6 6 5 5 6 6 6 6 7 7 7 8 10
1 1 2 1 2 2 2 2 1 0 1 1 1 1 1 2 3 3 3 3 3 3 4 4 4 5 5 5 5 5 5 5 5 5 5 5 6 6 6 6 7 7 7 8
1 1 2 2 1 1 1 1 1 2 1 1 2 2 2 3 3 3 3 3 3 4 4 4 5 5 5 5 5 5 5 7 7 5 5 5 5 5 6 6 6 6 7 7
2 1 1 1 1 1 2 2 2 2 2 2 2 2 2 2 2 3 3 3 3 4 4 5 5 5 5 5 5 5 5 6 7 6 5 5 5 6 6 6 6 6 6 7
1 2 3 3 2 2 2 2 2 2 2 2 2 2 2 2 3 3 4 4 3 4 4 4 5 5 5 5 5 4 5 5 5 5 5 5 6 6 6 6 6 7 7 7
0 0 1 1 1 2 2 2 2 2 2 1 2 2 2 3 3 3 3 3 3 4 4 5 7 5 5 5 6 4 4 5 5 5 5 6 6 5 6 6 6 7 7 6
1 1 1 1 1 0 1 1 1 1 1 1 1 2 2 3 3 3 3 3 3 4 5 5 5 5 5 5 6 4 4 5 5 5 5 5 5 6 6 6 6 6 6 6
1 1 1 1 1 1 1 0 1 1 1 1 1 2 3 3 3 2 2 3 3 4 5 6 5 5 5 5 5 3 4 4 4 5 5 5 5 6 6 6 6 6 6 7
0 0 0 0 1 1 1 1 0 1 1 1 1 2 2 3 3 3 3 3 4 6 5 4 4 6 7 5 3 4 4 4 4 4 5 5 5 6 6 7 7 7 7 7
0 0 0 0 0 1 1 1 1 1 1 1 2 2 2 3 3 3 3 3 4 6 5 4 6 9 8 4 3 4 4 5 5 5 5 5 6 6 7 7 7 7 7 7
0 0 0 0 1 1 1 2 2 1 2 2 2 2 2 2 2 2 3 5 6 6 4 5 8 9 7 3 4 4 4 5 5 5 6 6 6 6 6 7 7 7 7 9
0 1 1 1 0 0 1 1 1 2 2 2 3 3 2 2 2 3 3 4 5 6 4 5 8 8 5 4 4 5 5 5 6 6 6 6 6 6 7 7 7 7 8 8
0 1 1 1 1 1 1 1 1 2 2 2 3 3 3 3 3 3 3 4 4 5 4 4 5 6 4 5 5 5 5 6 6 6 6 6 7 7 7 7 9 8 8 8
0 0 0 1 1 1 1 1 2 2 2 2 3 3 3 3 3 3 4 4 4 4 4 4 4 4 5 5 5 5 5 5 6 6 6 6 6 7 7 9 8 8 8 9
Wind_Direction
267 265 220 233 225 212 217 230 242 256 259 261 258 258 258 245 230 221 225 231 235 241 245 248 256 265 273 280 283 281 278 278 281 285 287 290 293 295 296 295 295 296 296 295
263 247 247 255 243 228 231 238 246 259 265 268 277 270 260 244 224 228 235 244 252 256 256 258 263 269 274 281 285 281 277 278 283 284 285 289 293 297 298 298 298 297 296 296
248 268 288 257 237 220 222 225 230 245 256 243 261 257 257 248 237 237 244 253 258 261 265 272 275 277 279 284 288 283 282 284 285 283 286 292 295 297 298 300 300 298 297 296
226 202 243 258 133 213 223 236 232 243 251 243 261 282 277 258 245 251 259 264 266 269 277 285 286 288 290 291 288 289 290 290 291 291 291 294 295 296 298 299 298 297 297 298
208 239 262 264 215 193 211 248 230 228 240 269 329 310 277 251 259 270 270 271 271 271 276 284 283 289 292 295 298 297 295 295 296 295 294 295 296 297 298 298 297 297 297 298
208 230 246 250 157 178 190 249 198 204 221 221 187 265 287 356 313 297 295 292 292 293 294 287 292 294 288 295 298 299 301 299 298 296 293 292 294 296 296 295 295 297 296 297
222 235 256 216 140 155 205 264 148 197 203 196 215 271 326 327 321 320 315 313 310 299 294 295 295 291 289 295 298 303 303 301 299 298 294 292 293 294 295 295 295 295 297 296
207 224 243 144 153 193 240 62 130 182 201 209 245 310 308 317 323 328 331 330 325 311 310 313 305 294 293 298 306 308 304 302 302 302 300 297 296 297 297 295 294 296 299 301
206 222 52 158 185 202 96 143 212 214 198 176 211 257 283 309 317 320 323 321 319 311 314 319 313 302 297 306 313 309 305 304 303 303 301 301 299 299 299 297 295 298 300 302
232 241 224 200 221 228 164 188 255 184 177 184 219 247 279 301 311 318 320 318 316 308 308 314 318 316 309 310 312 307 304 305 305 305 305 304 302 299 298 300 300 300 300 302
234 243 233 228 222 210 162 116 108 89 204 211 214 248 270 288 298 304 309 308 303 298 299 307 316 316 318 316 312 306 304 305 306 305 304 303 301 299 298 294 297 303 305 304
228 202 201 220 179 166 163 169 164 152 296 289 253 256 274 279 286 292 296 301 302 301 302 307 312 313 316 316 309 304 304 306 306 305 306 305 304 304 298 298 304 306 308 307
218 115 146 148 138 147 171 181 176 199 224 268 278 263 267 280 287 291 293 296 296 297 299 302 305 308 314 317 310 302 301 304 304 304 305 305 306 308 310 311 308 309 313 315
140 130 168 195 198 148 122 106 82 58 358 293 286 284 282 293 297 297 295 298 300 301 301 302 304 307 314 313 308 303 302 303 303 302 303 303 303 305 307 311 314 314 316 320
318 278 196 154 116 107 101 103 95 45 355 342 323 307 296 290 289 296 303 306 305 301 304 306 305 309 316 312 307 304 304 306 305 303 302 302 303 303 304 306 307 310 315 321
51 86 124 139 149 132 141 180 235 268 286 295 301 306 301 296 296 302 308 307 298 297 302 302 301 308 312 309 306 301 301 306 309 305 304 305 305 306 307 308 309 310 314 318
160 182 194 213 232 254 262 259 247 253 265 270 285 300 306 313 315 316 319 316 302 294 295 296 301 308 307 306 303 301 302 305 307 304 303 305 306 307 307 308 309 309 311 316
251 233 224 218 224 244 270 272 261 260 264 271 280 283 284 286 292 302 310 315 315 311 307 306 309 310 309 311 308 303 302 302 303 302 305 307 308 307 307 307 308 308 309 314
44 167 195 205 219 225 245 265 270 271 275 264 265 275 282 287 292 297 303 304 304 310 319 320 317 317 315 313 312 303 302 301 302 303 304 308 310 310 309 308 308 309 310 312
49 58 74 69 47 255 254 269 263 268 276 264 271 288 299 301 300 299 296 289 290 300 309 313 315 315 315 309 307 302 305 305 303 303 305 307 308 309 310 309 308 308 309 309
46 57 68 64 27 353 320 268 234 266 288 264 254 273 286 296 296 291 291 302 316 317 314 315 320 316 312 311 308 306 305 304 303 302 304 306 307 308 309 309 308 308 308 307
24 52 49 62 48 6 356 341 269 266 287 296 289 282 290 301 307 302 282 281 304 316 322 316 315 314 318 320 318 313 308 305 304 304 303 303 304 305 305 306 305 305 305 304
317 279 221 122 67 357 359 356 325 295 292 294 289 287 293 295 296 298 307 311 312 314 320 310 314 319 330 333 319 312 308 305 303 301 301 301 300 300 300 301 301 301 301 302
200 194 123 91 100 78 3 348 343 330 317 309 300 291 295 305 308 300 296 306 316 317 314 311 319 326 336 328 314 309 307 305 303 302 300 298 298 298 297 297 297 298 298 299
188 153 137 135 153 288 311 335 345 341 339 336 333 331 319 303 295 306 310 306 311 318 316 316 322 328 329 313 309 305 302 298 298 299 297 298 298 298 297 296 296 296 297 296
204 229 235 250 263 274 286 293 304 315 322 327 331 330 331 327 315 310 309 310 309 315 317 313 315 317 313 307 304 301 298 299 301 300 296 295 295 296 295 298 298 296 295 294
255 286 278 301 297 282 279 277 283 293 300 301 308 316 323 322 319 319 316 313 313 312 310 309 309 307 304 302 300 297 295 294 293 293 293 293 292 292 294 295 295 295 294 292
Height
1502 1503 1504 1503 1503 1507 1507 1499 1497 1489 1490 1492 1496 1499 1501 1501 1502 1502 1502 1502 1501 1501 1501 1501 1500 1499 1499 1498 1497 1496 1494 1493 1491 1490 1488 1486 1484 1482 1480 1478 1475 1473 1470 1468
1506 1505 1505 1503 1499 1500 1500 1498 1495 1493 1492 1493 1496 1498 1499 1499 1499 1499 1499 1498 1498 1498 1498 1497 1497 1496 1495 1494 1493 1491 1490 1488 1487 1485 1483 1482 1480 1477 1475 1473 1471 1468 1466 1463
1499 1507 1505 1496 1491 1494 1495 1493 1493 1490 1488 1493 1495 1496 1496 1496 1496 1496 1496 1496 1495 1495 1494 1494 1493 1492 1491 1490 1489 1488 1486 1484 1483 1481 1479 1477 1475 1473 1471 1468 1466 1463 1461 1459
1501 1505 1500 1482 1490 1489 1490 1490 1491 1490 1491 1492 1493 1494 1494 1494 1494 1493 1493 1493 1492 1492 1491 1491 1490 1489 1488 1487 1485 1484 1482 1480 1479 1477 1475 1473 1471 1469 1466 1464 1461 1459 1456 1454
1500 1493 1483 1486 1489 1490 1490 1488 1489 1490 1490 1492 1492 1492 1491 1491 1491 1491 1491 1490 1490 1489 1488 1488 1487 1486 1485 1483 1482 1480 1478 1477 1475 1473 1471 1469 1467 1464 1462 1460 1457 1455 1452 1449
1499 1492 1482 1479 1488 1489 1490 1485 1487 1488 1488 1490 1491 1489 1488 1489 1488 1488 1488 1487 1487 1486 1485 1485 1484 1483 1481 1480 1479 1477 1475 1473 1471 1469 1467 1465 1462 1460 1458 1455 1453 1450 1447 1445
1493 1488 1477 1484 1487 1489 1487 1480 1485 1485 1486 1487 1488 1487 1488 1486 1486 1485 1485 1484 1484 1483 1482 1481 1481 1479 1478 1477 1475 1474 1472 1469 1467 1465 1463 1461 1458 1456 1454 1451 1449 1446 1443 1441
1490 1488 1481 1485 1486 1485 1482 1484 1484 1484 1485 1486 1485 1485 1485 1484 1484 1483 1482 1482 1481 1480 1479 1479 1478 1477 1475 1474 1472 1470 1468 1466 1464 1461 1459 1457 1455 1452 1450 1448 1445 1442 1439 1436
1480 1479 1481 1482 1482 1482 1482 1483 1483 1483 1483 1484 1483 1483 1483 1482 1482 1481 1480 1479 1478 1478 1477 1476 1475 1474 1472 1471 1469 1467 1465 1462 1460 1458 1456 1453 1451 1449 1446 1444 1441 1439 1436 1433
1481 1479 1481 1481 1481 1481 1482 1482 1482 1482 1482 1482 1481 1481 1481 1480 1479 1479 1478 1477 1476 1475 1474 1473 1472 1471 1469 1468 1466 1463 1461 1459 1457 1454 1452 1450 1448 1446 1443 1441 1438 1435 1433 1430
1478 1479 1480 1479 1480 1480 1480 1480 1481 1481 1480 1480 1479 1479 1478 1478 1477 1476 1476 1475 1474 1473 1472 1471 1469 1468 1466 1464 1462 1460 1458 1456 1454 1451 1449 1446 1444 1442 1440 1437 1435 1433 1430 1427
1473 1475 1477 1477 1478 1478 1478 1479 1479 1479 1478 1478 1478 1477 1476 1476 1475 1474 1473 1472 1471 1470 1469 1468 1466 1465 1463 1461 1459 1457 1455 1453 1451 1448 1446 1444 1441 1438 1436 1434 1431 1429 1426 1424
1473 1473 1474 1475 1476 1477 1477 1477 1477 1477 1477 1476 1476 1475 1474 1473 1473 1472 1471 1470 1469 1468 1466 1465 1463 1462 1460 1458 1456 1455 1453 1450 1448 1446 1443 1441 1438 1435 1432 1430 1428 1425 1422 1420
1471 1472 1473 1473 1474 1475 1475 1475 1475 1475 1475 1474 1474 1473 1472 1471 1470 1469 1468 1467 1466 1465 1464 1462 1461 1459 1457 1455 1454 1452 1450 1448 1445 1443 1441 1438 1435 1433 1430 1427 1424 1421 1419 1416
1470 1471 1472 1472 1472 1473 1473 1473 1473 1473 1472 1472 1471 1471 1470 1468 1467 1467 1466 1465 1463 1462 1461 1459 1458 1456 1454 1453 1451 1449 1447 1445 1443 1440 1438 1436 1433 1430 1427 1424 1421 1418 1415 1413
1469 1469 1470 1470 1470 1470 1471 1470 1470 1470 1470 1469 1469 1468 1467 1466 1465 1464 1463 1462 1461 1459 1458 1457 1455 1453 1452 1450 1448 1446 1444 1442 1440 1438 1435 1433 1430 1427 1425 1422 1419 1416 1413 1410
1468 1468 1468 1468 1468 1468 1469 1469 1468 1468 1467 1467 1466 1466 1465 1463 1462 1461 1460 1459 1458 1457 1456 1454 1452 1451 1449 1447 1445 1443 1441 1439 1437 1435 1432 1430 1427 1425 1422 1419 1416 1414 1411 1408
1467 1466 1466 1466 1466 1466 1466 1466 1466 1466 1465 1465 1464 1463 1462 1461 1460 1459 1458 1457 1455 1454 1453 1451 1450 1448 1446 1444 1442 1440 1438 1436 1434 1432 1429 1427 1425 1422 1420 1417 1414 1411 1408 1406
1465 1465 1465 1465 1465 1465 1465 1464 1464 1464 1463 1462 1461 1460 1460 1459 1458 1456 1455 1454 1452 1451 1450 1448 1447 1445 1443 1442 1440 1438 1436 1433 1431 1429 1427 1424 1422 1419 1417 1414 1411 1408 1406 1403
1464 1464 1463 1463 1463 1463 1463 1462 1462 1461 1461 1460 1459 1458 1457 1456 1455 1454 1452 1451 1450 1449 1447 1446 1444 1442 1441 1439 1437 1435 1433 1431 1428 1426 1424 1422 1419 1417 1414 1411 1409 1406 1403 1400
1463 1463 1462 1462 1462 1462 1461 1461 1460 1459 1458 1458 1457 1456 1455 1454 1453 1451 1450 1449 1448 1446 1445 1443 1442 1440 1438 1436 1434 1432 1430 1428 1426 1423 1421 1419 1416 1414 1411 1409 1406 1403 1400 1397
1462 1462 1461 1461 1461 1460 1460 1459 1458 1457 1456 1455 1455 1453 1452 1451 1450 1449 1448 1447 1445 1444 1442 1441 1439 1437 1436 1434 1432 1430 1427 1425 1423 1421 1418 1416 1414 1411 1408 1406 1403 1400 1397 1394
1461 1461 1461 1460 1460 1459 1458 1458 1457 1456 1455 1454 1453 1451 1450 1449 1448 1446 1445 1444 1443 1441 1440 1438 1437 1435 1434 1431 1429 1427 1425 1422 1420 1418 1416 1413 1411 1408 1405 1402 1400 1397 1394 1391
1461 1460 1460 1459 1459 1458 1457 1456 1456 1455 1454 1453 1451 1450 1449 1447 1446 1445 1443 1442 1440 1439 1437 1436 1434 1432 1430 1428 1426 1424 1422 1420 1417 1415 1413 1410 1407 1405 1402 1399 1396 1393 1390 1387
1460 1459 1459 1458 1457 1457 1456 1455 1454 1453 1452 1451 1450 1449 1447 1446 1444 1443 1441 1440 1438 1436 1434 1433 1431 1429 1427 1425 1423 1421 1419 1416 1414 1412 1409 1407 1404 1401 1399 1396 1393 1390 1387 1384
1459 1458 1458 1457 1456 1456 1455 1454 1453 1452 1451 1449 1448 1447 1445 1444 1442 1441 1439 1437 1436 1434 1432 1430 1428 1426 1424 1422 1420 1418 1415 1413 1411 1408 1406 1403 1400 1398 1395 1392 1389 1386 1383 1380
1457 1457 1456 1456 1455 1454 1453 1452 1451 1450 1449 1448 1446 1445 1443 1442 1440 1439 1437 1435 1433 1431 1429 1427 1425 1423 1421 1419 1416 1414 1412 1409 1407 1404 1402 1399 1396 1394 1391 1388 1385 1382 1379 1376